Time,TemperatureF,DewpointF,PressureIn,WindDirection,WindDirectionDegrees,WindSpeedMPH,WindSpeedGustMPH,Humidity,HourlyPrecipIn,Conditions,Clouds,dailyrainin,SoftwareType,DateUTC
2013-02-02 00:00:00,28.0,12.3,29.89,North,0,0.0,0.0,51,0.00,,,0.00,WUHU21623XXSP,2013-02-02 05:00:00,
2013-02-02 00:02:00,28.0,12.7,29.90,North,0,0.0,0.0,52,0.00,,,0.00,WUHU21623XXSP,2013-02-02 05:02:00,
2013-02-02 00:07:00,28.0,12.7,29.90,North,0,0.0,0.0,52,0.00,,,0.00,WUHU21623XXSP,2013-02-02 05:07:00,
2013-02-02 00:12:00,27.7,12.7,29.90,North,0,0.0,0.0,53,0.00,,,0.00,WUHU21623XXSP,2013-02-02 05:12:00,
2013-02-02 00:17:00,27.7,12.3,29.89,North,0,0.0,0.0,52,0.00,,,0.00,WUHU21623XXSP,2013-02-02 05:17:00,
2013-02-02 00:22:00,27.7,12.3,29.90,North,0,0.0,0.0,52,0.00,,,0.00,WUHU21623XXSP,2013-02-02 05:22:00,
2013-02-02 00:27:00,27.9,12.5,29.89,North,0,0.0,0.0,52,0.00,,,0.00,WUHU21623XXSP,2013-02-02 05:27:00,
2013-02-02 00:32:00,28.0,12.7,29.89,North,0,0.0,0.0,52,0.00,,,0.00,WUHU21623XXSP,2013-02-02 05:32:00,
2013-02-02 00:37:00,28.0,12.7,29.89,North,0,0.0,0.0,52,0.00,,,0.00,WUHU21623XXSP,2013-02-02 05:37:00,
2013-02-02 00:42:00,28.0,12.7,29.89,North,0,0.0,0.0,52,0.00,,,0.00,WUHU21623XXSP,2013-02-02 05:42:00,
2013-02-02 00:47:00,28.2,12.8,29.89,North,0,0.0,0.0,52,0.00,,,0.00,WUHU21623XXSP,2013-02-02 05:47:00,
2013-02-02 00:52:00,28.0,12.3,29.89,North,0,0.0,0.0,51,0.00,,,0.00,WUHU21623XXSP,2013-02-02 05:52:00,
2013-02-02 00:57:00,28.0,12.3,29.89,North,0,0.0,0.0,51,0.00,,,0.00,WUHU21623XXSP,2013-02-02 05:57:00,
2013-02-02 01:02:00,28.0,12.3,29.89,North,0,0.0,0.0,51,0.00,,,0.00,WUHU21623XXSP,2013-02-02 06:02:00,
2013-02-02 01:07:00,28.0,12.7,29.89,North,0,0.0,0.0,52,0.00,,,0.00,WUHU21623XXSP,2013-02-02 06:07:00,
2013-02-02 01:12:00,27.7,12.3,29.89,North,0,0.0,0.0,52,0.00,,,0.00,WUHU21623XXSP,2013-02-02 06:12:00,
2013-02-02 01:17:00,27.5,12.1,29.89,North,0,0.0,0.0,52,0.00,,,0.00,WUHU21623XXSP,2013-02-02 06:17:00,
2013-02-02 01:22:00,27.5,12.5,29.89,North,0,0.0,0.0,53,0.00,,,0.00,WUHU21623XXSP,2013-02-02 06:22:00,
2013-02-02 01:27:00,27.1,12.2,29.89,North,0,0.0,0.0,53,0.00,,,0.00,WUHU21623XXSP,2013-02-02 06:27:00,
2013-02-02 01:32:00,27.1,12.2,29.89,North,0,0.0,0.0,53,0.00,,,0.00,WUHU21623XXSP,2013-02-02 06:32:00,
2013-02-02 01:37:00,27.3,12.4,29.89,North,0,0.0,0.0,53,0.00,,,0.00,WUHU21623XXSP,2013-02-02 06:37:00,
2013-02-02 01:42:00,27.3,11.9,29.89,North,0,0.0,0.0,52,0.00,,,0.00,WUHU21623XXSP,2013-02-02 06:42:00,
2013-02-02 01:47:00,27.5,12.1,29.89,North,0,0.0,0.0,52,0.00,,,0.00,WUHU21623XXSP,2013-02-02 06:47:00,
2013-02-02 01:52:00,27.7,12.3,29.88,North,0,0.0,0.0,52,0.00,,,0.00,WUHU21623XXSP,2013-02-02 06:52:00,
2013-02-02 01:57:00,27.5,12.1,29.89,North,0,0.0,0.0,52,0.00,,,0.00,WUHU21623XXSP,2013-02-02 06:57:00,
2013-02-02 02:02:00,27.5,12.1,29.89,North,0,0.0,0.0,52,0.00,,,0.00,WUHU21623XXSP,2013-02-02 07:02:00,
2013-02-02 02:07:00,27.3,11.9,29.89,North,0,0.0,0.0,52,0.00,,,0.00,WUHU21623XXSP,2013-02-02 07:07:00,
2013-02-02 02:12:00,27.1,11.8,29.89,North,0,0.0,0.0,52,0.00,,,0.00,WUHU21623XXSP,2013-02-02 07:12:00,
2013-02-02 02:17:00,27.0,12.0,29.89,North,0,0.0,0.0,53,0.00,,,0.00,WUHU21623XXSP,2013-02-02 07:17:00,
2013-02-02 02:22:00,26.8,12.2,29.89,North,0,0.0,0.0,54,0.00,,,0.00,WUHU21623XXSP,2013-02-02 07:22:00,
2013-02-02 02:27:00,26.6,12.1,29.89,North,0,0.0,0.0,54,0.00,,,0.00,WUHU21623XXSP,2013-02-02 07:27:00,
2013-02-02 02:32:00,26.4,12.3,29.89,North,0,0.0,0.0,55,0.00,,,0.00,WUHU21623XXSP,2013-02-02 07:32:00,
2013-02-02 02:37:00,26.2,12.6,29.89,North,0,0.0,0.0,56,0.00,,,0.00,WUHU21623XXSP,2013-02-02 07:37:00,
2013-02-02 02:42:00,26.1,12.4,29.89,North,0,0.0,0.0,56,0.00,,,0.00,WUHU21623XXSP,2013-02-02 07:42:00,
2013-02-02 02:47:00,25.9,12.2,29.89,North,0,0.0,0.0,56,0.00,,,0.00,WUHU21623XXSP,2013-02-02 07:47:00,
2013-02-02 02:52:00,25.5,11.9,29.89,North,0,0.0,0.0,56,0.00,,,0.00,WUHU21623XXSP,2013-02-02 07:52:00,
2013-02-02 02:57:00,25.5,12.3,29.89,North,0,0.0,0.0,57,0.00,,,0.00,WUHU21623XXSP,2013-02-02 07:57:00,
2013-02-02 03:05:00,25.5,12.3,29.89,North,0,0.0,0.0,57,0.00,,,0.00,WUHU21623XXSP,2013-02-02 08:05:00,
2013-02-02 03:10:00,25.3,12.6,29.89,North,0,0.0,0.0,58,0.00,,,0.00,WUHU21623XXSP,2013-02-02 08:10:00,
2013-02-02 03:15:00,25.3,12.2,29.90,North,0,0.0,0.0,57,0.00,,,0.00,WUHU21623XXSP,2013-02-02 08:15:00,
2013-02-02 03:20:00,25.2,12.8,29.90,North,0,0.0,0.0,59,0.00,,,0.00,WUHU21623XXSP,2013-02-02 08:20:00,
2013-02-02 03:25:00,25.0,12.7,29.90,North,0,0.0,0.0,59,0.00,,,0.00,WUHU21623XXSP,2013-02-02 08:25:00,
2013-02-02 03:30:00,25.0,12.7,29.90,North,0,0.0,0.0,59,0.00,,,0.00,WUHU21623XXSP,2013-02-02 08:30:00,
2013-02-02 03:36:00,24.8,12.5,29.90,North,0,0.0,0.0,59,0.00,,,0.00,WUHU21623XXSP,2013-02-02 08:36:00,
2013-02-02 03:41:00,25.0,13.1,29.90,North,0,0.0,0.0,60,0.00,,,0.00,WUHU21623XXSP,2013-02-02 08:41:00,
2013-02-02 03:46:00,25.0,13.4,29.90,North,0,0.0,0.0,61,0.00,,,0.00,WUHU21623XXSP,2013-02-02 08:46:00,
2013-02-02 03:51:00,24.6,13.4,29.90,North,0,0.0,0.0,62,0.00,,,0.00,WUHU21623XXSP,2013-02-02 08:51:00,
2013-02-02 03:56:00,24.6,13.4,29.90,North,0,0.0,0.0,62,0.00,,,0.00,WUHU21623XXSP,2013-02-02 08:56:00,
2013-02-02 04:01:00,24.6,13.1,29.89,North,0,0.0,0.0,61,0.00,,,0.00,WUHU21623XXSP,2013-02-02 09:01:00,
2013-02-02 04:06:00,24.6,13.1,29.89,North,0,0.0,0.0,61,0.00,,,0.00,WUHU21623XXSP,2013-02-02 09:06:00,
2013-02-02 04:11:00,24.4,12.9,29.89,North,0,0.0,0.0,61,0.00,,,0.00,WUHU21623XXSP,2013-02-02 09:11:00,
2013-02-02 04:16:00,24.4,12.9,29.90,North,0,0.0,0.0,61,0.00,,,0.00,WUHU21623XXSP,2013-02-02 09:16:00,
2013-02-02 04:21:00,24.1,12.9,29.89,North,0,0.0,0.0,62,0.00,,,0.00,WUHU21623XXSP,2013-02-02 09:21:00,
2013-02-02 04:26:00,24.1,13.2,29.89,North,0,0.0,0.0,63,0.00,,,0.00,WUHU21623XXSP,2013-02-02 09:26:00,
2013-02-02 04:31:00,23.9,12.7,29.89,North,0,0.0,0.0,62,0.00,,,0.00,WUHU21623XXSP,2013-02-02 09:31:00,
2013-02-02 04:36:00,23.7,12.5,29.89,North,0,0.0,0.0,62,0.00,,,0.00,WUHU21623XXSP,2013-02-02 09:36:00,
2013-02-02 04:41:00,23.7,12.9,29.89,North,0,0.0,0.0,63,0.00,,,0.00,WUHU21623XXSP,2013-02-02 09:41:00,
2013-02-02 04:46:00,23.7,12.9,29.88,North,0,0.0,0.0,63,0.00,,,0.00,WUHU21623XXSP,2013-02-02 09:46:00,
2013-02-02 04:51:00,23.9,13.1,29.88,North,0,0.0,0.0,63,0.00,,,0.00,WUHU21623XXSP,2013-02-02 09:51:00,
2013-02-02 04:56:00,23.7,12.9,29.88,North,0,0.0,0.0,63,0.00,,,0.00,WUHU21623XXSP,2013-02-02 09:56:00,
2013-02-02 05:01:00,23.5,13.4,29.88,North,0,0.0,0.0,65,0.00,,,0.00,WUHU21623XXSP,2013-02-02 10:01:00,
2013-02-02 05:06:00,23.5,13.8,29.89,North,0,0.0,0.0,66,0.00,,,0.00,WUHU21623XXSP,2013-02-02 10:06:00,
2013-02-02 05:11:00,23.5,14.1,29.89,North,0,0.0,0.0,67,0.00,,,0.00,WUHU21623XXSP,2013-02-02 10:11:00,
2013-02-02 05:16:00,23.5,14.1,29.89,North,0,0.0,0.0,67,0.00,,,0.00,WUHU21623XXSP,2013-02-02 10:16:00,
2013-02-02 05:21:00,23.5,14.1,29.89,North,0,0.0,0.0,67,0.00,,,0.00,WUHU21623XXSP,2013-02-02 10:21:00,
2013-02-02 05:26:00,23.5,14.1,29.90,North,0,0.0,0.0,67,0.00,,,0.00,WUHU21623XXSP,2013-02-02 10:26:00,
2013-02-02 05:31:00,23.5,13.8,29.89,North,0,0.0,0.0,66,0.00,,,0.00,WUHU21623XXSP,2013-02-02 10:31:00,
2013-02-02 05:36:00,23.7,13.9,29.90,North,0,0.0,0.0,66,0.00,,,0.00,WUHU21623XXSP,2013-02-02 10:36:00,
2013-02-02 05:41:00,23.7,13.6,29.89,North,0,0.0,0.0,65,0.00,,,0.00,WUHU21623XXSP,2013-02-02 10:41:00,
2013-02-02 05:46:00,23.5,13.4,29.89,North,0,0.0,0.0,65,0.00,,,0.00,WUHU21623XXSP,2013-02-02 10:46:00,
2013-02-02 05:51:00,23.4,13.3,29.89,North,0,0.0,0.0,65,0.00,,,0.00,WUHU21623XXSP,2013-02-02 10:51:00,
2013-02-02 05:56:00,23.0,12.9,29.89,North,0,0.0,0.0,65,0.00,,,0.00,WUHU21623XXSP,2013-02-02 10:56:00,
2013-02-02 06:01:00,23.0,12.9,29.89,North,0,0.0,0.0,65,0.00,,,0.00,WUHU21623XXSP,2013-02-02 11:01:00,
2013-02-02 06:06:00,22.8,13.1,29.89,North,0,0.0,0.0,66,0.00,,,0.00,WUHU21623XXSP,2013-02-02 11:06:00,
2013-02-02 06:11:00,22.8,13.1,29.89,North,0,0.0,0.0,66,0.00,,,0.00,WUHU21623XXSP,2013-02-02 11:11:00,
2013-02-02 06:16:00,22.6,12.9,29.89,North,0,0.0,0.0,66,0.00,,,0.00,WUHU21623XXSP,2013-02-02 11:16:00,
2013-02-02 06:21:00,22.6,12.9,29.89,North,0,0.0,0.0,66,0.00,,,0.00,WUHU21623XXSP,2013-02-02 11:21:00,
2013-02-02 06:26:00,22.8,13.8,29.89,North,0,0.0,0.0,68,0.00,,,0.00,WUHU21623XXSP,2013-02-02 11:26:00,
2013-02-02 06:31:00,22.8,13.8,29.89,North,0,0.0,0.0,68,0.00,,,0.00,WUHU21623XXSP,2013-02-02 11:31:00,
2013-02-02 06:36:00,23.0,14.0,29.89,North,0,0.0,0.0,68,0.00,,,0.00,WUHU21623XXSP,2013-02-02 11:36:00,
2013-02-02 06:41:00,23.4,14.0,29.89,North,0,0.0,0.0,67,0.00,,,0.00,WUHU21623XXSP,2013-02-02 11:41:00,
2013-02-02 06:46:00,23.5,13.8,29.89,North,0,0.0,0.0,66,0.00,,,0.00,WUHU21623XXSP,2013-02-02 11:46:00,
2013-02-02 06:51:00,23.7,13.9,29.89,North,0,0.0,0.0,66,0.00,,,0.00,WUHU21623XXSP,2013-02-02 11:51:00,
2013-02-02 06:56:00,24.4,14.3,29.89,South,180,0.0,0.0,65,0.00,,,0.00,WUHU21623XXSP,2013-02-02 11:56:00,
2013-02-02 07:01:00,25.0,14.4,29.89,SE,135,0.0,0.0,64,0.00,,,0.00,WUHU21623XXSP,2013-02-02 12:01:00,
2013-02-02 07:06:00,25.5,15.0,29.89,SSE,157,0.0,0.0,64,0.00,,,0.00,WUHU21623XXSP,2013-02-02 12:06:00,
2013-02-02 07:11:00,25.7,14.8,29.89,SE,135,0.0,0.0,63,0.00,,,0.00,WUHU21623XXSP,2013-02-02 12:11:00,
2013-02-02 07:16:00,26.1,15.1,29.89,SE,135,0.0,0.0,63,0.00,,,0.00,WUHU21623XXSP,2013-02-02 12:16:00,
2013-02-02 07:21:00,26.2,14.9,29.89,SE,135,0.0,0.4,62,0.00,,,0.00,WUHU21623XXSP,2013-02-02 12:21:00,
2013-02-02 07:26:00,26.4,15.1,29.88,SSE,157,0.0,0.4,62,0.00,,,0.00,WUHU21623XXSP,2013-02-02 12:26:00,
2013-02-02 07:31:00,26.6,14.9,29.89,South,180,0.0,0.0,61,0.00,,,0.00,WUHU21623XXSP,2013-02-02 12:31:00,
2013-02-02 07:36:00,26.8,15.1,29.89,SE,135,0.0,0.0,61,0.00,,,0.00,WUHU21623XXSP,2013-02-02 12:36:00,
2013-02-02 07:41:00,27.0,15.3,29.89,SE,135,0.0,0.0,61,0.00,,,0.00,WUHU21623XXSP,2013-02-02 12:41:00,
2013-02-02 07:46:00,27.1,15.4,29.89,SE,135,0.0,0.0,61,0.00,,,0.00,WUHU21623XXSP,2013-02-02 12:46:00,
2013-02-02 07:51:00,27.1,15.1,29.90,SSE,157,0.0,0.0,60,0.00,,,0.00,WUHU21623XXSP,2013-02-02 12:51:00,
2013-02-02 07:56:00,27.3,15.3,29.90,SSE,157,0.0,0.0,60,0.00,,,0.00,WUHU21623XXSP,2013-02-02 12:56:00,
2013-02-02 08:01:00,27.7,15.2,29.90,SSE,157,0.0,0.0,59,0.00,,,0.00,WUHU21623XXSP,2013-02-02 13:01:00,
2013-02-02 08:06:00,28.0,15.6,29.90,SSE,157,0.0,0.0,59,0.00,,,0.00,WUHU21623XXSP,2013-02-02 13:06:00,
2013-02-02 08:11:00,28.6,16.1,29.90,SSE,157,0.0,0.0,59,0.00,,,0.00,WUHU21623XXSP,2013-02-02 13:11:00,
2013-02-02 08:16:00,28.9,16.0,29.90,SE,135,0.0,0.0,58,0.00,,,0.00,WUHU21623XXSP,2013-02-02 13:16:00,
2013-02-02 08:21:00,29.7,16.6,29.90,SE,135,0.0,0.7,58,0.00,,,0.00,WUHU21623XXSP,2013-02-02 13:21:00,
2013-02-02 08:26:00,31.3,18.2,29.91,SSE,157,0.0,0.7,58,0.00,,,0.00,WUHU21623XXSP,2013-02-02 13:26:00,
2013-02-02 08:31:00,33.1,19.4,29.91,SE,135,0.0,0.0,57,0.00,,,0.00,WUHU21623XXSP,2013-02-02 13:31:00,
2013-02-02 08:36:00,34.3,19.8,29.90,SSE,157,0.0,0.0,55,0.00,,,0.00,WUHU21623XXSP,2013-02-02 13:36:00,
2013-02-02 08:41:00,35.8,20.3,29.90,SE,135,0.0,0.0,53,0.00,,,0.00,WUHU21623XXSP,2013-02-02 13:41:00,
2013-02-02 08:46:00,36.5,20.1,29.90,SSE,157,0.0,2.0,51,0.00,,,0.00,WUHU21623XXSP,2013-02-02 13:46:00,
2013-02-02 08:51:00,37.2,20.3,29.91,SSE,157,0.0,2.0,50,0.00,,,0.00,WUHU21623XXSP,2013-02-02 13:51:00,
2013-02-02 08:56:00,37.9,20.4,29.90,SE,135,0.0,0.0,49,0.00,,,0.00,WUHU21623XXSP,2013-02-02 13:56:00,
2013-02-02 09:01:00,39.4,20.7,29.90,SSE,157,0.0,0.0,47,0.00,,,0.00,WUHU21623XXSP,2013-02-02 14:01:00,
2013-02-02 09:06:00,39.9,20.7,29.90,SSE,157,1.1,1.1,46,0.00,,,0.00,WUHU21623XXSP,2013-02-02 14:06:00,
2013-02-02 09:12:00,40.3,20.5,29.90,ESE,112,0.0,2.5,45,0.00,,,0.00,WUHU21623XXSP,2013-02-02 14:12:00,
2013-02-02 09:17:00,41.0,20.6,29.90,East,90,0.0,2.5,44,0.00,,,0.00,WUHU21623XXSP,2013-02-02 14:17:00,
2013-02-02 09:22:00,41.5,20.6,29.90,SW,225,0.0,5.6,43,0.00,,,0.00,WUHU21623XXSP,2013-02-02 14:22:00,
2013-02-02 09:27:00,42.1,20.5,29.89,SE,135,0.0,5.6,42,0.00,,,0.00,WUHU21623XXSP,2013-02-02 14:27:00,
2013-02-02 09:32:00,42.6,20.5,29.89,SSW,202,0.0,0.0,41,0.00,,,0.00,WUHU21623XXSP,2013-02-02 14:32:00,
2013-02-02 09:37:00,42.6,20.5,29.90,SSE,157,0.0,0.0,41,0.00,,,0.00,WUHU21623XXSP,2013-02-02 14:37:00,
2013-02-02 09:42:00,43.3,20.6,29.90,SE,135,0.0,5.4,40,0.00,,,0.00,WUHU21623XXSP,2013-02-02 14:42:00,
2013-02-02 09:47:00,44.1,21.3,29.89,SE,135,0.0,5.4,40,0.00,,,0.00,WUHU21623XXSP,2013-02-02 14:47:00,
2013-02-02 09:52:00,44.4,20.9,29.89,SE,135,0.0,0.0,39,0.00,,,0.00,WUHU21623XXSP,2013-02-02 14:52:00,
2013-02-02 09:57:00,43.9,20.4,29.89,SSE,157,0.0,5.1,39,0.00,,,0.00,WUHU21623XXSP,2013-02-02 14:57:00,
2013-02-02 10:02:00,43.2,19.8,29.88,South,180,0.0,5.1,39,0.00,,,0.00,WUHU21623XXSP,2013-02-02 15:02:00,
2013-02-02 10:07:00,43.5,20.1,29.88,SE,135,0.0,5.1,39,0.00,,,0.00,WUHU21623XXSP,2013-02-02 15:07:00,
2013-02-02 10:12:00,45.0,20.1,29.88,SSE,157,0.0,0.4,37,0.00,,,0.00,WUHU21623XXSP,2013-02-02 15:12:00,
2013-02-02 10:17:00,46.0,21.0,29.88,ESE,112,0.0,0.4,37,0.00,,,0.00,WUHU21623XXSP,2013-02-02 15:17:00,
2013-02-02 10:22:00,46.9,21.2,29.88,SE,135,0.0,0.0,36,0.00,,,0.00,WUHU21623XXSP,2013-02-02 15:22:00,
2013-02-02 10:27:00,48.0,21.5,29.88,SE,135,0.0,2.5,35,0.00,,,0.00,WUHU21623XXSP,2013-02-02 15:27:00,
2013-02-02 10:32:00,48.9,21.6,29.87,SSW,202,0.0,2.5,34,0.00,,,0.00,WUHU21623XXSP,2013-02-02 15:32:00,
2013-02-02 10:37:00,49.8,21.6,29.87,SE,135,0.0,0.9,33,0.00,,,0.00,WUHU21623XXSP,2013-02-02 15:37:00,
2013-02-02 10:42:00,51.1,22.8,29.87,SE,135,0.0,0.9,33,0.00,,,0.00,WUHU21623XXSP,2013-02-02 15:42:00,
2013-02-02 10:47:00,51.6,22.6,29.87,South,180,0.0,0.0,32,0.00,,,0.00,WUHU21623XXSP,2013-02-02 15:47:00,
2013-02-02 10:52:00,52.9,23.7,29.87,SSE,157,0.0,0.0,32,0.00,,,0.00,WUHU21623XXSP,2013-02-02 15:52:00,
2013-02-02 10:57:00,53.4,23.5,29.87,SE,135,0.0,4.3,31,0.00,,,0.00,WUHU21623XXSP,2013-02-02 15:57:00,
2013-02-02 11:02:00,54.1,23.4,29.87,SE,135,0.0,4.3,30,0.00,,,0.00,WUHU21623XXSP,2013-02-02 16:02:00,
2013-02-02 11:07:00,55.9,24.0,29.87,SE,135,0.0,0.0,29,0.00,,,0.00,WUHU21623XXSP,2013-02-02 16:07:00,
2013-02-02 11:12:00,55.9,24.0,29.87,SE,135,0.0,0.0,29,0.00,,,0.00,WUHU21623XXSP,2013-02-02 16:12:00,
2013-02-02 11:17:00,57.2,24.2,29.86,SW,225,0.0,0.0,28,0.00,,,0.00,WUHU21623XXSP,2013-02-02 16:17:00,
2013-02-02 11:22:00,58.3,24.1,29.86,SSW,202,0.0,0.0,27,0.00,,,0.00,WUHU21623XXSP,2013-02-02 16:22:00,
2013-02-02 11:27:00,58.8,23.6,29.85,SSE,157,6.7,6.7,26,0.00,,,0.00,WUHU21623XXSP,2013-02-02 16:27:00,
2013-02-02 11:32:00,58.8,23.6,29.86,SE,135,0.0,6.7,26,0.00,,,0.00,WUHU21623XXSP,2013-02-02 16:32:00,
2013-02-02 11:37:00,60.4,24.0,29.85,NNE,22,0.0,6.7,25,0.00,,,0.00,WUHU21623XXSP,2013-02-02 16:37:00,
2013-02-02 11:42:00,61.3,24.8,29.85,SE,135,0.0,0.0,25,0.00,,,0.00,WUHU21623XXSP,2013-02-02 16:42:00,
2013-02-02 11:47:00,61.5,24.0,29.84,SE,135,0.0,0.0,24,0.00,,,0.00,WUHU21623XXSP,2013-02-02 16:47:00,
2013-02-02 11:52:00,62.2,24.6,29.84,SW,225,0.0,0.0,24,0.00,,,0.00,WUHU21623XXSP,2013-02-02 16:52:00,
2013-02-02 11:57:00,63.3,25.5,29.84,SW,225,0.0,0.0,24,0.00,,,0.00,WUHU21623XXSP,2013-02-02 16:57:00,
2013-02-02 12:02:00,64.9,25.9,29.83,SSE,157,0.0,0.0,23,0.00,,,0.00,WUHU21623XXSP,2013-02-02 17:02:00,
2013-02-02 12:07:00,66.0,26.8,29.83,SW,225,0.0,0.0,23,0.00,,,0.00,WUHU21623XXSP,2013-02-02 17:07:00,
2013-02-02 12:12:00,66.4,27.1,29.82,SE,135,0.0,0.9,23,0.00,,,0.00,WUHU21623XXSP,2013-02-02 17:12:00,
2013-02-02 12:17:00,66.7,26.4,29.82,SE,135,0.0,2.0,22,0.00,,,0.00,WUHU21623XXSP,2013-02-02 17:17:00,
2013-02-02 12:22:00,67.3,26.9,29.81,SE,135,0.0,2.0,22,0.00,,,0.00,WUHU21623XXSP,2013-02-02 17:22:00,
2013-02-02 12:27:00,67.3,26.9,29.81,SE,135,0.0,2.5,22,0.00,,,0.00,WUHU21623XXSP,2013-02-02 17:27:00,
2013-02-02 12:32:00,67.8,27.3,29.80,SW,225,0.0,3.4,22,0.00,,,0.00,WUHU21623XXSP,2013-02-02 17:32:00,
2013-02-02 12:37:00,68.9,27.2,29.80,SW,225,0.0,3.4,21,0.00,,,0.00,WUHU21623XXSP,2013-02-02 17:37:00,
2013-02-02 12:42:00,70.9,28.8,29.79,SW,225,0.0,1.6,21,0.00,,,0.00,WUHU21623XXSP,2013-02-02 17:42:00,
2013-02-02 12:47:00,71.8,26.9,29.79,WSW,247,0.0,2.2,19,0.00,,,0.00,WUHU21623XXSP,2013-02-02 17:47:00,
2013-02-02 12:52:00,70.5,25.9,29.78,SSE,157,0.0,2.7,19,0.00,,,0.00,WUHU21623XXSP,2013-02-02 17:52:00,
2013-02-02 12:57:00,70.3,25.8,29.78,South,180,0.0,2.7,19,0.00,,,0.00,WUHU21623XXSP,2013-02-02 17:57:00,
2013-02-02 13:02:00,72.1,27.2,29.77,SW,225,0.0,3.1,19,0.00,,,0.00,WUHU21623XXSP,2013-02-02 18:02:00,
2013-02-02 13:07:00,71.8,25.3,29.76,SW,225,0.0,6.0,18,0.00,,,0.00,WUHU21623XXSP,2013-02-02 18:07:00,
2013-02-02 13:12:00,71.8,25.3,29.76,SW,225,0.0,6.0,18,0.00,,,0.00,WUHU21623XXSP,2013-02-02 18:12:00,
2013-02-02 13:17:00,73.0,26.4,29.76,WSW,247,0.0,0.0,18,0.00,,,0.00,WUHU21623XXSP,2013-02-02 18:17:00,
2013-02-02 13:22:00,75.0,28.0,29.76,WSW,247,0.0,0.0,18,0.00,,,0.00,WUHU21623XXSP,2013-02-02 18:22:00,
2013-02-02 13:27:00,75.0,28.0,29.76,WSW,247,0.0,0.0,18,0.00,,,0.00,WUHU21623XXSP,2013-02-02 18:27:00,
2013-02-02 13:32:00,75.7,26.9,29.76,WSW,247,0.0,0.0,17,0.00,,,0.00,WUHU21623XXSP,2013-02-02 18:32:00,
2013-02-02 13:37:00,75.4,26.6,29.76,WSW,247,0.0,0.0,17,0.00,,,0.00,WUHU21623XXSP,2013-02-02 18:37:00,
2013-02-02 13:42:00,75.7,26.9,29.76,WSW,247,0.0,0.0,17,0.00,,,0.00,WUHU21623XXSP,2013-02-02 18:42:00,
2013-02-02 13:47:00,76.1,27.2,29.76,WSW,247,0.0,0.0,17,0.00,,,0.00,WUHU21623XXSP,2013-02-02 18:47:00,
2013-02-02 13:52:00,76.8,27.8,29.75,WSW,247,0.0,0.0,17,0.00,,,0.00,WUHU21623XXSP,2013-02-02 18:52:00,
2013-02-02 13:57:00,76.6,27.6,29.75,WSW,247,0.0,0.0,17,0.00,,,0.00,WUHU21623XXSP,2013-02-02 18:57:00,
2013-02-02 14:02:00,77.2,28.1,29.75,WSW,247,0.0,0.0,17,0.00,,,0.00,WUHU21623XXSP,2013-02-02 19:02:00,
2013-02-02 14:07:00,77.5,28.3,29.75,WSW,247,0.0,0.0,17,0.00,,,0.00,WUHU21623XXSP,2013-02-02 19:07:00,
2013-02-02 14:12:00,73.8,25.4,29.75,WSW,247,0.0,0.0,17,0.00,,,0.00,WUHU21623XXSP,2013-02-02 19:12:00,
2013-02-02 14:17:00,73.9,25.5,29.74,SW,225,0.0,0.0,17,0.00,,,0.00,WUHU21623XXSP,2013-02-02 19:17:00,
2013-02-02 14:22:00,73.9,25.5,29.74,WSW,247,0.0,0.0,17,0.00,,,0.00,WUHU21623XXSP,2013-02-02 19:22:00,
2013-02-02 14:28:00,70.0,23.9,29.74,WSW,247,0.0,0.0,18,0.00,,,0.00,WUHU21623XXSP,2013-02-02 19:28:00,
2013-02-02 14:33:00,66.9,22.9,29.74,SE,135,0.0,0.0,19,0.00,,,0.00,WUHU21623XXSP,2013-02-02 19:33:00,
2013-02-02 14:38:00,71.1,24.7,29.73,ESE,112,0.0,0.0,18,0.00,,,0.00,WUHU21623XXSP,2013-02-02 19:38:00,
2013-02-02 14:43:00,73.6,26.9,29.73,WSW,247,0.0,0.0,18,0.00,,,0.00,WUHU21623XXSP,2013-02-02 19:43:00,
2013-02-02 14:48:00,75.6,26.8,29.73,WSW,247,0.0,0.0,17,0.00,,,0.00,WUHU21623XXSP,2013-02-02 19:48:00,
2013-02-02 14:53:00,76.8,27.8,29.73,WSW,247,0.0,0.0,17,0.00,,,0.00,WUHU21623XXSP,2013-02-02 19:53:00,
2013-02-02 14:58:00,76.8,27.8,29.73,WSW,247,0.0,0.0,17,0.00,,,0.00,WUHU21623XXSP,2013-02-02 19:58:00,
2013-02-02 15:03:00,75.6,26.8,29.73,WSW,247,1.6,1.6,17,0.00,,,0.00,WUHU21623XXSP,2013-02-02 20:03:00,
2013-02-02 15:08:00,75.9,27.1,29.73,WSW,247,0.0,1.6,17,0.00,,,0.00,WUHU21623XXSP,2013-02-02 20:08:00,
2013-02-02 15:13:00,77.2,28.1,29.72,WSW,247,0.0,0.0,17,0.00,,,0.00,WUHU21623XXSP,2013-02-02 20:13:00,
2013-02-02 15:18:00,76.8,27.9,29.72,WSW,247,0.0,0.0,17,0.00,,,0.00,WUHU21623XXSP,2013-02-02 20:18:00,
2013-02-02 15:23:00,77.2,28.1,29.72,WSW,247,0.0,0.0,17,0.00,,,0.00,WUHU21623XXSP,2013-02-02 20:23:00,
2013-02-02 15:28:00,76.8,27.8,29.72,WSW,247,0.0,0.0,17,0.00,,,0.00,WUHU21623XXSP,2013-02-02 20:28:00,
2013-02-02 15:33:00,77.4,28.2,29.72,WSW,247,0.0,0.0,17,0.00,,,0.00,WUHU21623XXSP,2013-02-02 20:33:00,
2013-02-02 15:38:00,77.9,28.6,29.72,WSW,247,0.0,0.0,17,0.00,,,0.00,WUHU21623XXSP,2013-02-02 20:38:00,
2013-02-02 15:43:00,77.5,28.3,29.72,WSW,247,0.0,0.0,17,0.00,,,0.00,WUHU21623XXSP,2013-02-02 20:43:00,
2013-02-02 15:48:00,77.5,26.7,29.72,WSW,247,0.0,0.0,17,0.00,,,0.00,WUHU21623XXSP,2013-02-02 20:48:00,
2013-02-02 15:53:00,75.9,27.1,29.71,SE,135,0.0,0.0,17,0.00,,,0.00,WUHU21623XXSP,2013-02-02 20:53:00,
2013-02-02 15:58:00,69.6,23.6,29.71,South,180,0.0,0.0,18,0.00,,,0.00,WUHU21623XXSP,2013-02-02 20:58:00,
2013-02-02 16:03:00,65.1,21.5,29.71,South,180,0.0,0.0,19,0.00,,,0.00,WUHU21623XXSP,2013-02-02 21:03:00,
2013-02-02 16:08:00,61.7,21.3,29.71,WNW,292,0.0,0.0,21,0.00,,,0.00,WUHU21623XXSP,2013-02-02 21:08:00,
2013-02-02 16:13:00,59.0,18.9,29.71,WNW,292,0.0,0.0,21,0.00,,,0.00,WUHU21623XXSP,2013-02-02 21:13:00,
2013-02-02 16:18:00,57.4,18.6,29.70,WNW,292,0.0,0.0,22,0.00,,,0.00,WUHU21623XXSP,2013-02-02 21:18:00,
2013-02-02 16:23:00,55.9,18.3,29.70,West,270,0.0,0.0,23,0.00,,,0.00,WUHU21623XXSP,2013-02-02 21:23:00,
2013-02-02 16:28:00,55.8,18.0,29.70,West,270,0.0,0.0,23,0.00,,,0.00,WUHU21623XXSP,2013-02-02 21:28:00,
2013-02-02 16:33:00,54.7,19.1,29.70,West,270,0.0,0.0,25,0.00,,,0.00,WUHU21623XXSP,2013-02-02 21:33:00,
2013-02-02 16:38:00,53.6,18.2,29.70,West,270,0.0,0.0,25,0.00,,,0.00,WUHU21623XXSP,2013-02-02 21:38:00,
2013-02-02 16:43:00,52.9,18.6,29.70,West,270,0.0,0.0,26,0.00,,,0.00,WUHU21623XXSP,2013-02-02 21:43:00,
2013-02-02 16:48:00,52.3,18.1,29.69,West,270,0.0,0.0,26,0.00,,,0.00,WUHU21623XXSP,2013-02-02 21:48:00,
2013-02-02 16:53:00,52.3,18.1,29.69,WSW,247,0.0,0.0,26,0.00,,,0.00,WUHU21623XXSP,2013-02-02 21:53:00,
2013-02-02 16:58:00,52.2,18.9,29.69,West,270,0.0,0.0,27,0.00,,,0.00,WUHU21623XXSP,2013-02-02 21:58:00,
2013-02-02 17:03:00,51.8,18.6,29.69,West,270,0.0,0.0,27,0.00,,,0.00,WUHU21623XXSP,2013-02-02 22:03:00,
2013-02-02 17:08:00,51.4,18.2,29.68,West,270,0.0,0.0,27,0.00,,,0.00,WUHU21623XXSP,2013-02-02 22:08:00,
2013-02-02 17:13:00,51.3,18.1,29.68,SW,225,0.0,0.0,27,0.00,,,0.00,WUHU21623XXSP,2013-02-02 22:13:00,
2013-02-02 17:18:00,51.1,18.9,29.68,SW,225,0.0,0.0,28,0.00,,,0.00,WUHU21623XXSP,2013-02-02 22:18:00,
2013-02-02 17:23:00,50.7,18.6,29.68,SW,225,0.0,0.0,28,0.00,,,0.00,WUHU21623XXSP,2013-02-02 22:23:00,
2013-02-02 17:28:00,50.2,18.1,29.68,SW,225,0.0,0.0,28,0.00,,,0.00,WUHU21623XXSP,2013-02-02 22:28:00,
2013-02-02 17:33:00,49.8,18.7,29.68,SW,225,0.0,0.0,29,0.00,,,0.00,WUHU21623XXSP,2013-02-02 22:33:00,
2013-02-02 17:38:00,49.3,18.2,29.67,SW,225,0.0,0.0,29,0.00,,,0.00,WUHU21623XXSP,2013-02-02 22:38:00,
2013-02-02 17:43:00,49.1,18.1,29.67,SW,225,0.0,0.0,29,0.00,,,0.00,WUHU21623XXSP,2013-02-02 22:43:00,
2013-02-02 17:48:00,48.7,18.8,29.67,SW,225,0.0,0.0,30,0.00,,,0.00,WUHU21623XXSP,2013-02-02 22:48:00,
2013-02-02 17:53:00,48.0,18.2,29.67,SW,225,0.0,0.0,30,0.00,,,0.00,WUHU21623XXSP,2013-02-02 22:53:00,
2013-02-02 17:58:00,47.3,18.2,29.66,SW,225,0.0,0.0,31,0.00,,,0.00,WUHU21623XXSP,2013-02-02 22:58:00,
2013-02-02 18:03:00,46.9,17.9,29.67,SW,225,0.0,0.0,31,0.00,,,0.00,WUHU21623XXSP,2013-02-02 23:03:00,
2013-02-02 18:08:00,46.6,18.2,29.67,SW,225,0.0,0.0,32,0.00,,,0.00,WUHU21623XXSP,2013-02-02 23:08:00,
2013-02-02 18:13:00,46.0,17.7,29.66,SW,225,0.0,0.0,32,0.00,,,0.00,WUHU21623XXSP,2013-02-02 23:13:00,
2013-02-02 18:18:00,45.5,17.9,29.66,SW,225,0.0,0.0,33,0.00,,,0.00,WUHU21623XXSP,2013-02-02 23:18:00,
2013-02-02 18:23:00,45.5,17.9,29.66,SW,225,0.0,0.0,33,0.00,,,0.00,WUHU21623XXSP,2013-02-02 23:23:00,
2013-02-02 18:28:00,45.3,18.4,29.66,SW,225,0.0,0.0,34,0.00,,,0.00,WUHU21623XXSP,2013-02-02 23:28:00,
2013-02-02 18:33:00,45.3,18.4,29.66,SW,225,0.0,0.0,34,0.00,,,0.00,WUHU21623XXSP,2013-02-02 23:33:00,
2013-02-02 18:38:00,45.1,18.2,29.66,SW,225,0.0,0.0,34,0.00,,,0.00,WUHU21623XXSP,2013-02-02 23:38:00,
2013-02-02 18:43:00,44.8,18.6,29.66,SW,225,0.0,0.0,35,0.00,,,0.00,WUHU21623XXSP,2013-02-02 23:43:00,
2013-02-02 18:48:00,44.4,18.2,29.66,SW,225,0.0,0.0,35,0.00,,,0.00,WUHU21623XXSP,2013-02-02 23:48:00,
2013-02-02 18:54:00,44.4,18.9,29.66,SW,225,0.0,0.0,36,0.00,,,0.00,WUHU21623XXSP,2013-02-02 23:54:00,
2013-02-02 18:59:00,44.2,19.4,29.66,SW,225,0.0,0.0,37,0.00,,,0.00,WUHU21623XXSP,2013-02-02 23:59:00,
2013-02-02 19:04:00,43.7,18.9,29.66,SW,225,0.0,0.0,37,0.00,,,0.00,WUHU21623XXSP,2013-02-03 00:04:00,
2013-02-02 19:09:00,43.5,19.4,29.66,SW,225,0.0,0.0,38,0.00,,,0.00,WUHU21623XXSP,2013-02-03 00:09:00,
2013-02-02 19:14:00,43.5,20.1,29.67,SW,225,0.0,0.0,39,0.00,,,0.00,WUHU21623XXSP,2013-02-03 00:14:00,
2013-02-02 19:19:00,43.5,20.8,29.67,SW,225,0.0,0.0,40,0.00,,,0.00,WUHU21623XXSP,2013-02-03 00:19:00,
2013-02-02 19:24:00,43.9,21.1,29.68,SW,225,0.0,0.0,40,0.00,,,0.00,WUHU21623XXSP,2013-02-03 00:24:00,
2013-02-02 19:29:00,43.9,21.1,29.67,SW,225,0.0,0.0,40,0.00,,,0.00,WUHU21623XXSP,2013-02-03 00:29:00,
2013-02-02 19:34:00,44.4,21.6,29.68,SW,225,0.0,0.0,40,0.00,,,0.00,WUHU21623XXSP,2013-02-03 00:34:00,
2013-02-02 19:40:00,44.4,21.6,29.68,SW,225,0.0,0.0,40,0.00,,,0.00,WUHU21623XXSP,2013-02-03 00:40:00,
2013-02-02 19:45:00,44.6,22.3,29.68,SW,225,0.0,0.0,41,0.00,,,0.00,WUHU21623XXSP,2013-02-03 00:45:00,
2013-02-02 19:50:00,44.6,21.7,29.67,SW,225,0.0,0.0,40,0.00,,,0.00,WUHU21623XXSP,2013-02-03 00:50:00,
2013-02-02 19:55:00,44.8,21.9,29.68,SW,225,0.0,0.0,40,0.00,,,0.00,WUHU21623XXSP,2013-02-03 00:55:00,
2013-02-02 20:00:00,44.8,22.4,29.68,SW,225,0.0,0.0,41,0.00,,,0.00,WUHU21623XXSP,2013-02-03 01:00:00,
2013-02-02 20:05:00,44.4,22.1,29.68,SW,225,0.0,0.0,41,0.00,,,0.00,WUHU21623XXSP,2013-02-03 01:05:00,
2013-02-02 20:10:00,44.4,22.7,29.68,SW,225,0.0,0.0,42,0.00,,,0.00,WUHU21623XXSP,2013-02-03 01:10:00,
2013-02-02 20:15:00,44.4,22.1,29.68,SW,225,0.0,0.0,41,0.00,,,0.00,WUHU21623XXSP,2013-02-03 01:15:00,
2013-02-02 20:20:00,44.4,22.1,29.69,SW,225,0.0,0.0,41,0.00,,,0.00,WUHU21623XXSP,2013-02-03 01:20:00,
2013-02-02 20:25:00,44.6,22.3,29.69,SW,225,0.0,0.0,41,0.00,,,0.00,WUHU21623XXSP,2013-02-03 01:25:00,
2013-02-02 20:30:00,45.0,22.1,29.69,SW,225,0.0,0.0,40,0.00,,,0.00,WUHU21623XXSP,2013-02-03 01:30:00,
2013-02-02 20:35:00,45.1,22.2,29.69,SW,225,0.0,0.0,40,0.00,,,0.00,WUHU21623XXSP,2013-02-03 01:35:00,
2013-02-02 20:40:00,45.3,22.4,29.69,SW,225,0.0,0.0,40,0.00,,,0.00,WUHU21623XXSP,2013-02-03 01:40:00,
2013-02-02 20:45:00,45.7,22.7,29.69,SW,225,0.0,0.0,40,0.00,,,0.00,WUHU21623XXSP,2013-02-03 01:45:00,
2013-02-02 20:50:00,46.0,23.0,29.69,SW,225,0.0,0.0,40,0.00,,,0.00,WUHU21623XXSP,2013-02-03 01:50:00,
2013-02-02 20:55:00,46.2,22.5,29.69,SW,225,0.0,0.0,39,0.00,,,0.00,WUHU21623XXSP,2013-02-03 01:55:00,
2013-02-02 21:00:00,46.6,22.9,29.69,SW,225,0.0,0.0,39,0.00,,,0.00,WUHU21623XXSP,2013-02-03 02:00:00,
2013-02-02 21:05:00,46.8,23.0,29.69,SW,225,0.0,0.0,39,0.00,,,0.00,WUHU21623XXSP,2013-02-03 02:05:00,
2013-02-02 21:10:00,46.9,23.2,29.69,SW,225,0.0,0.0,39,0.00,,,0.00,WUHU21623XXSP,2013-02-03 02:10:00,
2013-02-02 21:15:00,47.1,22.7,29.69,SW,225,0.0,0.0,38,0.00,,,0.00,WUHU21623XXSP,2013-02-03 02:15:00,
2013-02-02 21:20:00,47.1,22.7,29.69,SW,225,0.0,0.0,38,0.00,,,0.00,WUHU21623XXSP,2013-02-03 02:20:00,
2013-02-02 21:25:00,47.1,23.3,29.70,SW,225,0.0,0.0,39,0.00,,,0.00,WUHU21623XXSP,2013-02-03 02:25:00,
2013-02-02 21:30:00,46.9,23.2,29.70,SW,225,0.0,0.0,39,0.00,,,0.00,WUHU21623XXSP,2013-02-03 02:30:00,
2013-02-02 21:35:00,46.2,24.3,29.70,NNE,22,0.0,0.0,42,0.00,,,0.00,WUHU21623XXSP,2013-02-03 02:35:00,
2013-02-02 21:40:00,46.0,26.3,29.70,NNW,337,0.0,0.0,46,0.00,,,0.00,WUHU21623XXSP,2013-02-03 02:40:00,
2013-02-02 21:45:00,45.9,28.7,29.70,NNW,337,0.0,0.0,51,0.00,,,0.00,WUHU21623XXSP,2013-02-03 02:45:00,
2013-02-02 21:50:00,45.5,28.9,29.69,SSW,202,0.0,0.0,52,0.00,,,0.00,WUHU21623XXSP,2013-02-03 02:50:00,
2013-02-02 21:55:00,45.5,29.8,29.68,WNW,292,0.0,0.0,54,0.00,,,0.00,WUHU21623XXSP,2013-02-03 02:55:00,
2013-02-02 22:00:00,45.5,29.8,29.68,SW,225,0.0,5.1,54,0.00,,,0.00,WUHU21623XXSP,2013-02-03 03:00:00,
2013-02-02 22:05:00,45.1,29.9,29.68,West,270,0.0,5.1,55,0.00,,,0.00,WUHU21623XXSP,2013-02-03 03:05:00,
2013-02-02 22:10:00,44.8,30.5,29.67,NNE,22,0.0,0.0,57,0.00,,,0.00,WUHU21623XXSP,2013-02-03 03:10:00,
2013-02-02 22:15:00,44.8,30.9,29.67,NNE,22,0.0,0.0,58,0.00,,,0.00,WUHU21623XXSP,2013-02-03 03:15:00,
2013-02-02 22:20:00,44.8,31.4,29.67,NNE,22,0.0,0.0,59,0.00,,,0.00,WUHU21623XXSP,2013-02-03 03:20:00,
2013-02-02 22:25:00,45.1,32.1,29.67,NNE,22,0.0,0.0,60,0.00,,,0.00,WUHU21623XXSP,2013-02-03 03:25:00,
2013-02-02 22:30:00,45.3,31.8,29.66,NNE,22,0.0,0.0,59,0.00,,,0.00,WUHU21623XXSP,2013-02-03 03:30:00,
2013-02-02 22:35:00,45.5,32.5,29.66,NNE,22,0.0,0.0,60,0.00,,,0.00,WUHU21623XXSP,2013-02-03 03:35:00,
2013-02-02 22:40:00,45.5,32.5,29.66,NNE,22,0.0,0.0,60,0.00,,,0.00,WUHU21623XXSP,2013-02-03 03:40:00,
2013-02-02 22:46:00,45.5,32.8,29.66,NNE,22,0.0,0.0,61,0.00,,,0.00,WUHU21623XXSP,2013-02-03 03:46:00,
2013-02-02 22:51:00,45.5,32.8,29.66,NNE,22,0.0,0.0,61,0.00,,,0.00,WUHU21623XXSP,2013-02-03 03:51:00,
2013-02-02 22:56:00,45.5,32.8,29.66,NNE,22,0.0,0.0,61,0.00,,,0.00,WUHU21623XXSP,2013-02-03 03:56:00,
2013-02-02 23:01:00,45.5,33.2,29.66,NNE,22,0.0,0.0,62,0.00,,,0.00,WUHU21623XXSP,2013-02-03 04:01:00,
2013-02-02 23:06:00,45.3,33.0,29.66,NNE,22,0.0,0.0,62,0.00,,,0.00,WUHU21623XXSP,2013-02-03 04:06:00,
2013-02-02 23:11:00,45.1,33.3,29.66,NNE,22,0.0,0.0,63,0.00,,,0.00,WUHU21623XXSP,2013-02-03 04:11:00,
2013-02-02 23:16:00,45.1,33.3,29.66,NNE,22,0.0,0.0,63,0.00,,,0.00,WUHU21623XXSP,2013-02-03 04:16:00,
2013-02-02 23:21:00,45.1,33.7,29.66,NNE,22,0.0,0.0,64,0.00,,,0.00,WUHU21623XXSP,2013-02-03 04:21:00,
2013-02-02 23:26:00,45.1,33.7,29.66,NNE,22,0.0,0.0,64,0.00,,,0.00,WUHU21623XXSP,2013-02-03 04:26:00,
2013-02-02 23:31:00,45.0,33.9,29.65,NNE,22,0.0,0.0,65,0.00,,,0.00,WUHU21623XXSP,2013-02-03 04:31:00,
2013-02-02 23:36:00,45.0,33.9,29.65,NNE,22,0.0,0.0,65,0.00,,,0.00,WUHU21623XXSP,2013-02-03 04:36:00,
2013-02-02 23:41:00,44.8,33.7,29.65,NNE,22,0.0,0.0,65,0.00,,,0.00,WUHU21623XXSP,2013-02-03 04:41:00,
2013-02-02 23:46:00,44.4,33.7,29.65,NNE,22,0.0,0.0,66,0.00,,,0.00,WUHU21623XXSP,2013-02-03 04:46:00,
2013-02-02 23:51:00,44.4,34.1,29.65,NNE,22,0.0,0.0,67,0.00,,,0.00,WUHU21623XXSP,2013-02-03 04:51:00,
2013-02-02 23:56:00,44.4,34.1,29.65,NNE,22,0.0,0.0,67,0.00,,,0.00,WUHU21623XXSP,2013-02-03 04:56:00,